CZ-6A DEB, 54431

Orbit data source: Space-Track

CZ-6A DEB, 54431 is space debris in SSO originally from a launch on Fri, 11 Nov 2022 UTC launched from the Taiyaun Space Center, China (TSC). Debris objects in space refer to the collection of defunct objects orbiting the Earth. Examples of debris include non-operational satellites, rocket bodies, and fragments generated from explosions, collisions, or faulty payload assembly.

Loading next visibility...
Identifier
54431, 2022-151FF
Orbit
SSO
Country
Flag of CNCN / PRC
Related business
Manufacturer
SAST
Mission
Spacecraft
Bus & Motor
Unknown
Mass
Unknown
Launch date (UTC)
2022-11-11 (4 years ago)
Launch vehicle
Unknown
Launch site
Taiyaun Space Center, China (TSC)
Object type
Payload
Rocket body
Debris
Shape & HBR
Unknown shape, 0.1 m
Radar Cross Section
Medium (>0.1 m² and <1 m²)

Expand to show TLE details & history
Last TLE update: 2 days ago

TLE from 2 days ago
0 CZ-6A DEB
1 54431U 22151FF  26170.98103159  .00000366  00000-0  24728-3 0  9991
2 54431  98.9765 175.3576 0116787 347.4259  12.4000 14.03387678184020
Epoch: 2026-06-19T23:32Z
TLE epoch observation values (Epoch: 2026-06-19T23:32:41.129Z)
Latitude
-0.00004°
Longitude
-86.01598°
Altitude
802.19 km
Speed
7.495 km/s
True Right ascension
11h 41m 25s
True Declination
0° 00' 00"
Sunlit
Object was in daylight at epoch
Visualization orbit readout
Latitude
Unknown
Longitude
Unknown
Altitude
Unknown
Speed
Unknown
Apparent Right ascension
Unknown
Apparent Declination
Unknown
Sunlit
N/A
Visualization observer readout
Local Sidereal Time
21:33:31
Azimuth
Unknown
Elevation
Unknown
Doppler factor
Unknown
Orbital elements
Apogee altitude
964.038 km
Perigee altitude
794.524 km
Semi-major axis
7,257.418 km
Eccentricity
0.01168
Inclination
98.9765°
RAAN
175.3576°
Arg. of periapsis
347.4259°
True anomaly
12.69153°
Mean anomaly
12.4°
Eccentric anomaly
12.54535°
Mean motion
3.51051 °/min
Orbital period
102.55 mins
BSTAR
0.00024728
Loading maneuver chart data...
Computing Atmospheric mass density...
Loading historical data...
Loading historical data...
Loading historical data...
Loading historical data...
Loading historical data...
Loading historical data...
Loading historical data...

Documentation

Showing up to 5 results
|